Lapeer, MI

7:05 PM EDT on April 25, 2018 (GMT -0400)
Lapeer

Weather History for KD95 - August, 2014

Change the Weather History Date:

Saturday, August 23, 2014

  Actual Average (KFNT) Record (KFNT)
Temperature  
Mean Temperature 68 °F -  
Max Temperature 76 °F 76 °F 98 °F (1936)
Min Temperature 59 °F 57 °F 41 °F (1952)
Cooling Degree Days 2    
Growing Degree Days 18 (Base 50)    
Moisture  
Dew Point 63 °F    
Average Humidity 88    
Maximum Humidity 97    
Minimum Humidity 69    
Precipitation  
Precipitation 0.00 in - - ()
Sea Level Pressure  
Sea Level Pressure 30.07 in    
Wind  
Wind Speed 2 mph (East)    
Max Wind Speed 7 mph    
Max Gust Speed -    
Visibility 7 miles    
Events Fog    
Averages and records for this station are not official NWS values.
T = Trace of Precipitation, MM = Missing Value Source: NWS Daily Summary

Daily Weather History Graph

Daily Weather History Graph

Search for Another Location

Airport or City:

Astronomy

Aug. 23, 2014 Rise Set
Actual Time 6:47 AM EDT 8:22 PM EDT
Civil Twilight 6:17 AM EDT 8:52 PM EDT
Nautical Twilight 5:41 AM EDT 9:28 PM EDT
Astronomical Twilight 5:02 AM EDT 10:07 PM EDT
Moon 5:01 AM EDT (8/23) 7:07 PM EDT (8/23)
Length of Visible Light 14h 35m
Length of Day
13h 35m
Waning Crescent, 3% of the Moon is Illuminated
Aug 23
Waning Crescent
Aug 25
New
Sep 2
First Quarter
Sep 8
Full
Sep 15
Last Quarter

Hourly Weather History & Observations

Time (EDT) Temp. Dew Point Humidity Pressure Visibility Wind Dir Wind Speed Gust Speed Precip Events Conditions
12:14 AM 62.4 °F 60.8 °F 94% 30.05 in 10.0 mi Calm Calm - N/A   Clear
12:34 AM 61.7 °F 60.3 °F 95% 30.06 in 10.0 mi Calm Calm - N/A   Clear
12:54 AM 61.3 °F 59.9 °F 95% 30.05 in 7.0 mi Calm Calm - N/A   Clear
1:14 AM 61.0 °F 59.9 °F 96% 30.05 in 10.0 mi Calm Calm - N/A   Clear
1:34 AM 61.5 °F 60.1 °F 95% 30.05 in 7.0 mi Calm Calm - N/A   Clear
1:54 AM 59.9 °F 58.6 °F 96% 30.04 in 5.0 mi Calm Calm - N/A   Clear
2:14 AM 61.0 °F 59.9 °F 96% 30.04 in 5.0 mi Calm Calm - N/A   Mostly Cloudy
2:34 AM 61.0 °F 59.9 °F 96% 30.03 in 0.5 mi Calm Calm - N/A Fog Fog
2:53 AM 61.0 °F 59.9 °F 96% 30.03 in 0.2 mi Calm Calm - N/A Fog Fog
3:14 AM 61.2 °F 60.1 °F 96% 30.03 in 0.2 mi Calm Calm - N/A Fog Fog
3:34 AM 61.3 °F 60.3 °F 96% 30.03 in 0.2 mi NE 3.5 mph - N/A Fog Fog
3:53 AM 61.3 °F 60.3 °F 96% 30.03 in 0.5 mi Calm Calm - N/A Fog Fog
4:14 AM 61.7 °F 60.8 °F 97% 30.03 in 0.5 mi Calm Calm - N/A Fog Fog
4:34 AM 61.7 °F 60.6 °F 96% 30.03 in 0.5 mi Calm Calm - N/A Fog Fog
5:14 AM 61.7 °F 60.4 °F 96% 30.04 in 0.2 mi Calm Calm - N/A Fog Fog
5:34 AM 61.3 °F 60.3 °F 96% 30.04 in 0.2 mi Calm Calm - N/A Fog Fog
5:53 AM 61.5 °F 60.3 °F 96% 30.05 in 0.2 mi Calm Calm - N/A Fog Fog
6:14 AM 61.5 °F 60.3 °F 96% 30.05 in 0.2 mi Calm Calm - N/A Fog Fog
6:34 AM 61.3 °F 60.3 °F 96% 30.06 in 0.2 mi Calm Calm - N/A Fog Fog
7:14 AM 61.7 °F 60.4 °F 96% 30.07 in 0.2 mi Calm Calm - N/A Fog Fog
7:34 AM 61.7 °F 60.8 °F 97% 30.07 in 0.2 mi Calm Calm - N/A Fog Fog
8:14 AM 61.7 °F 60.6 °F 96% 30.06 in 0.5 mi ENE 3.5 mph - N/A Fog Fog
8:34 AM 61.9 °F 60.8 °F 96% 30.06 in 2.0 mi East 3.5 mph - N/A   Overcast
8:54 AM 62.1 °F 61.0 °F 96% 30.07 in 0.5 mi Calm Calm - N/A Fog Fog
9:14 AM 62.6 °F 61.5 °F 96% 30.06 in 0.8 mi Calm Calm - N/A   Overcast
9:34 AM 63.3 °F 62.1 °F 96% 30.07 in 10.0 mi ENE 3.5 mph - N/A   Overcast
9:54 AM 63.9 °F 62.8 °F 96% 30.07 in 10.0 mi NE 3.5 mph - N/A   Overcast
10:14 AM 63.9 °F 62.6 °F 96% 30.08 in 10.0 mi NE 5.8 mph - N/A   Overcast
10:34 AM 64.6 °F 62.1 °F 92% 30.08 in 10.0 mi NE 4.6 mph - N/A   Overcast
10:54 AM 65.3 °F 62.4 °F 90% 30.08 in 10.0 mi NE 5.8 mph - N/A   Overcast
11:14 AM 65.8 °F 62.6 °F 89% 30.10 in 10.0 mi ENE 6.9 mph - N/A   Overcast
11:34 AM 66.2 °F 62.6 °F 88% 30.10 in 10.0 mi East 4.6 mph - N/A   Overcast
11:54 AM 66.2 °F 62.6 °F 88% 30.11 in 10.0 mi NE 3.5 mph - N/A   Overcast
12:14 PM 66.7 °F 63.1 °F 88% 30.10 in 10.0 mi East 5.8 mph - N/A   Overcast
12:33 PM 67.1 °F 63.1 °F 87% 30.10 in 10.0 mi East 4.6 mph - N/A   Overcast
12:54 PM 67.5 °F 63.0 °F 85% 30.10 in 10.0 mi NE 6.9 mph - N/A   Overcast
1:14 PM 68.7 °F 63.7 °F 84% 30.10 in 10.0 mi East 5.8 mph - N/A   Overcast
1:33 PM 69.6 °F 64.0 °F 82% 30.10 in 10.0 mi East 5.8 mph - N/A   Overcast
1:54 PM 70.2 °F 63.7 °F 80% 30.10 in 10.0 mi Calm Calm - N/A   Overcast
2:14 PM 72.7 °F 64.9 °F 77% 30.10 in 10.0 mi East 4.6 mph - N/A   Overcast
2:33 PM 71.6 °F 64.9 °F 79% 30.10 in 10.0 mi Calm Calm - N/A   Overcast
2:54 PM 71.6 °F 65.1 °F 80% 30.10 in 10.0 mi East 4.6 mph - N/A   Overcast
3:14 PM 71.6 °F 65.1 °F 80% 30.10 in 7.0 mi SE 3.5 mph - N/A   Overcast
3:34 PM 71.6 °F 65.1 °F 80% 30.10 in 5.0 mi ESE 4.6 mph - N/A   Haze
3:54 PM 71.8 °F 65.3 °F 80% 30.10 in 3.0 mi SSE 4.6 mph - N/A   Haze
4:14 PM 73.4 °F 66.2 °F 78% 30.09 in 7.0 mi Calm Calm - N/A   Mostly Cloudy
4:34 PM 74.5 °F 66.0 °F 75% 30.08 in 7.0 mi South 3.5 mph - N/A   Mostly Cloudy
4:54 PM 74.5 °F 65.5 °F 73% 30.08 in 7.0 mi SSW 3.5 mph - N/A   Overcast
5:14 PM 74.8 °F 64.9 °F 71% 30.07 in 7.0 mi Calm Calm - N/A   Scattered Clouds
5:34 PM 75.2 °F 65.1 °F 71% 30.07 in 10.0 mi ENE 3.5 mph - N/A   Clear
5:54 PM 76.1 °F 65.1 °F 69% 30.07 in 10.0 mi SE 4.6 mph - N/A   Scattered Clouds
6:14 PM 75.2 °F 65.5 °F 72% 30.06 in 10.0 mi East 5.8 mph - N/A   Overcast
6:34 PM 73.9 °F 65.1 °F 74% 30.06 in 10.0 mi East 3.5 mph - N/A   Mostly Cloudy
6:54 PM 73.6 °F 64.9 °F 74% 30.06 in 10.0 mi ENE 3.5 mph - N/A   Mostly Cloudy
7:14 PM 73.0 °F 65.5 °F 77% 30.06 in 10.0 mi Calm Calm - N/A   Scattered Clouds
7:34 PM 72.7 °F 65.8 °F 79% 30.06 in 10.0 mi Calm Calm - N/A   Clear
7:54 PM 71.1 °F 67.1 °F 87% 30.06 in 10.0 mi Calm Calm - N/A   Clear
8:14 PM 71.1 °F 64.8 °F 80% 30.07 in 10.0 mi Calm Calm - N/A   Clear
8:34 PM 69.8 °F 64.0 °F 82% 30.07 in 10.0 mi East 3.5 mph - N/A   Clear
8:54 PM 69.1 °F 63.9 °F 83% 30.08 in 10.0 mi Calm Calm - N/A   Clear
9:13 PM 68.2 °F 63.7 °F 85% 30.08 in 10.0 mi East 4.6 mph - N/A   Mostly Cloudy
9:34 PM 67.8 °F 63.5 °F 86% 30.08 in 10.0 mi East 6.9 mph - N/A   Scattered Clouds
9:54 PM 67.1 °F 62.6 °F 85% 30.08 in 10.0 mi East 5.8 mph - N/A   Clear
10:13 PM 66.4 °F 62.6 °F 88% 30.08 in 10.0 mi East 3.5 mph - N/A   Clear
10:34 PM 66.2 °F 62.6 °F 88% 30.08 in 10.0 mi Calm Calm - N/A   Clear
10:54 PM 65.5 °F 62.6 °F 90% 30.09 in 10.0 mi East 3.5 mph - N/A   Clear
11:13 PM 65.3 °F 62.6 °F 91% 30.10 in 10.0 mi Calm Calm - N/A   Clear
11:34 PM 64.9 °F 62.6 °F 92% 30.10 in 10.0 mi East 3.5 mph - N/A   Mostly Cloudy
11:54 PM 64.8 °F 62.6 °F 93% 30.10 in 10.0 mi Calm Calm - N/A   Scattered Clouds